ONEWEB-0602, 54666

Orbit data source: Space-Track

ONEWEB-0602, 54666 is a payload satellite owned by One Web (NAA) (UK) in LEO that was launched on Thu, 08 Dec 2022 UTC via an FALCON 9 launch vehicle from the Air Force Eastern Test Range (AFETR). Payload-class satellites include a variety of spacecraft equipped with specific instruments for various scientific and technological missions. These include communications satellites like Starlink; space stations such as the ISS; scientific satellites like the Hubble; Earth observation satellites from companies like Planet Labs, Umbra, and HawkEye 360; GPS; miniature CubeSats for education and research; and military/defense satellites.

Loading next visibility...
Identifier
54666, 2022-166AA
Orbit
LEO
Country
Flag of UKUK
Related business
Manufacturer
One Web
Mission
Operational Commercial Communications
Bus & Motor
ARROW, Unknown motor
Mass
148 kg wet, ~140 kg dry
Launch date (UTC)
2022-12-08 (4 years ago)
Launch vehicle
FALCON 9
Launch site
Air Force Eastern Test Range (AFETR)
Object type
Payload
Rocket body
Debris
Shape & HBR
Trap Box + 2 Pan, 6.7 m
Radar Cross Section
3.464 m², Large (>1 m²)

Expand to show TLE details & history
Last TLE update: 2 days ago

TLE from 2 days ago
0 ONEWEB-0602
1 54666U 22166AA  26171.48120287 -.00000015  00000-0 -68024-4 0  9995
2 54666  87.9250 243.3454 0001747  96.4742 263.6591 13.21826772171983
Epoch: 2026-06-20T11:32Z
TLE epoch observation values (Epoch: 2026-06-20T11:32:55.927Z)
Latitude
-0.00004°
Longitude
161.41716°
Altitude
1,180.801 km
Speed
7.263 km/s
True Right ascension
16h 13m 22s
True Declination
0° 00' 00"
Sunlit
Object was in full shadow at epoch
Visualization orbit readout
Latitude
Unknown
Longitude
Unknown
Altitude
Unknown
Speed
Unknown
Apparent Right ascension
Unknown
Apparent Declination
Unknown
Sunlit
N/A
Visualization observer readout
Local Sidereal Time
21:41:18
Azimuth
Unknown
Elevation
Unknown
Doppler factor
Unknown
Orbital elements
Apogee altitude
1,176.172 km
Perigee altitude
1,173.533 km
Semi-major axis
7,552.99 km
Eccentricity
0.00017
Inclination
87.925°
RAAN
243.3454°
Arg. of periapsis
96.4742°
True anomaly
263.6392°
Mean anomaly
263.6591°
Eccentric anomaly
263.64915°
Mean motion
3.30647 °/min
Orbital period
108.88 mins
BSTAR
-0.000068024
Loading maneuver chart data...
Computing Atmospheric mass density...
Loading historical data...
Loading historical data...
Loading historical data...
Loading historical data...
Loading historical data...
Loading historical data...
Loading historical data...

Documentation

Showing up to 5 results
|